Regional Weather Roundup
Issued by NWS Northern Indiana

Home | Current Version | Previous Version | Graphics & Text | Print | Product List | Glossary On
Versions: 1 2 3 4 5 6 7 8 9 10 11 12 13 14 15 16 17 18 19 20 21 22 23 24 25 26 27 28 29 30 31 32 33 34 35 36 37 38 39 40 41 42 43 44 45 46 47 48 49 50
000
ASUS43 KIWX 270800
RWRIWX

KIWX WEATHER ROUNDUP
NATIONAL WEATHER SERVICE NORTHERN INDIANA
300 AM EST TUE JAN 27 2015

NOTE: "FAIR" INDICATES FEW OR NO CLOUDS BELOW 12,000 FEET WITH NO
SIGNIFICANT WEATHER AND/OR OBSTRUCTIONS TO VISIBILITY.

* THESE STATIONS ARE NOT UNDER NWS QUALITY CONTROL. THEY ALSO MAY NOT
  REPORT WEATHER SUCH AS PRECIPITATION OR FOG.

INZ001>027-270900-
NORTHERN INDIANA

CITY           SKY/WX    TMP DP  RH WIND       PRES   REMARKS
SOUTH BEND     CLOUDY    24  14  65 NE3       29.96R
GOSHEN         CLOUDY    21  14  74 E3        29.94R
ANGOLA*        PTCLDY    18  12  79 CALM      29.93R
FORT WAYNE     CLOUDY    19  12  74 E3        29.95R
PERU/GRISSOM   FLURRIES  22  18  84 E5        29.92R WCI  15

$$
INZ028>050-270900-
CENTRAL INDIANA

CITY           SKY/WX    TMP DP  RH WIND       PRES   REMARKS
LAFAYETTE      CLOUDY    26  25  96 NE6       29.93R FOG     WCI  19
KOKOMO*        CLOUDY    23  18  80 SE5       29.93R WCI  17
MUNCIE*        CLOUDY    21  14  74 E7        29.92R WCI  12
INDIANAPOLIS   LGT SNOW  24  24 100 SE5       29.91R FOG     WCI  18

$$
MIZ043>046-050>051-056>058-064>065-071>073-077>080-270900-
SOUTHWEST LOWER MICHIGAN

CITY           SKY/WX    TMP DP  RH WIND       PRES   REMARKS
BATTLE CREEK   CLOUDY    21  10  62 NE7       29.96R WCI  12
BENTON HARBOR  CLOUDY    22  12  65 E5        29.97R WCI  16
COLDWATER*     CLOUDY    19  10  67 E5        29.94R WCI  12
HILLSDALE*     CLOUDY    17  11  77 CALM      29.93S
HOLLAND        CLOUDY    22  12  65 E6        29.99R WCI  14
GRAND RAPIDS   CLOUDY    18  12  77 NE6       29.99R WCI  10
KALAMAZOO      CLOUDY    21  10  62 NE3       29.97R
STURGIS*       CLOUDY    19  10  68 CALM      29.94R
THREE RIVERS*  CLOUDY    22  12  66 CALM      29.96R

$$
OHZ001>008-015>018-024>025-270900-
NORTHWEST OHIO

CITY           SKY/WX    TMP DP  RH WIND       PRES   REMARKS
DEFIANCE       MOCLDY    14   9  80 CALM      29.97S
FINDLAY        PTCLDY     9   4  80 CALM      29.95S
TOLEDO EXPRESS MOCLDY    12   8  84 CALM      29.98R
TOLEDO METCALF PTCLDY     9   4  80 CALM      29.99R
LIMA           PTCLDY    11   5  77 CALM      29.93R

$$
AND FOR LAKE MICHIGAN COASTAL AND OPEN LAKE BUOY OBSERVATIONS

STATION/POSITION TEMP    WIND        PRES    VSBY  WAVE
                 AIR SEA DIR/SP/G                  HT/PER
                 (F)     (DEG/KT/KT) (MB)    (MI)  (FT/S)
CALUMET HARBOR    26     100/  2/  4   N/A
MICHIGAN CITY     23     110/  6/  8   N/A
SAINT JOSEPH      23      CALM  /  3 1014.9S

$$
&&



USA.gov is the U.S. government's official web portal to all federal, state and local government web resources and services.